Location: Dammartin
(48.9032°N, 1.6195°E)
Time: 13:52:10
(UTC+00:00)

MINOTAUR 4 R/B - Pass Details

Date: 03 February 2023
Orbit: 447 x 452 km, 98.0° (Epoch: 29 March)

Event Time Altitude Azimuth Distance (km) Brightness Sun altitude
Exits shadow 18:47:13 53° 41° (NE) 559 4.0 -18.8°
Maximum altitude 18:47:51 71° 103° (ESE) 479 3.7 -18.9°
Drops below altitude 10° 18:51:13 10° 188° (S) 1,572 6.8 -19.5°
Sets 18:53:14 0° 191° (S) 2,438 7.8 -19.8°
